This demonstration page uses our WeatherBlox Daily Observations layout. Learn more.

Left ArrowRight Arrow

36.17497, -115.13722

Hourly Observations for July 28, 2017

Temp ( °F °C ) Dew Point ( °F °C ) Humidity (%) Winds ( mph kmh ) Pressure ( in mb ) Visibility ( mi km ) Precip ( " mm )
12:53 am 00:53 Clear 92 33.3 54 12.2 28 28 N N/A 29.80 1009 10 16 N/A
1:53 am 01:53 Clear 89 31.7 56 13.3 33 33 N 5 7 29.80 1009 10 16 N/A
2:53 am 02:53 Clear 87 30.6 55 12.8 34 34 N N/A 29.81 1010 10 16 N/A
3:53 am 03:53 Clear 87 30.6 52 11.1 30 30 W 5 7 29.81 1010 10 16 N/A
4:22 am 04:22 Clear with Nearby Thunderstorms 87 30.6 51 10.6 29 29 N N/A 29.71 1006 10 16 N/A
4:53 am 04:53 Clear 84 28.9 51 10.6 32 32 N N/A 29.82 1010 10 16 N/A
5:28 am 05:28 Clear with Thunderstorms 84 28.9 51 10.6 32 32 ENE 3 6 29.74 1007 10 16 N/A
5:53 am 05:53 Sunny with Thunderstorms 85 29.4 51 10.6 31 31 N N/A 29.84 1010 10 16 N/A
6:03 am 06:03 Sunny with Nearby Thunderstorms 84 28.9 52 11.1 33 33 NW 5 7 29.74 1007 10 16 N/A
6:12 am 06:12 Sunny 83 28.3 52 11.1 34 34 NW 7 11 29.74 1007 10 16 N/A
6:53 am 06:53 Sunny 86 30 49 9.4 28 28 NW 7 11 29.85 1011 10 16 N/A
7:53 am 07:53 Sunny 90 32.2 50 10 25 25 N N/A 29.87 1012 10 16 N/A
8:53 am 08:53 Sunny 94 34.4 48 8.9 21 21 E 6 9 29.88 1012 10 16 N/A
9:53 am 09:53 Sunny 95 35 47 8.3 19 19 ESE 8 13 29.88 1012 10 16 N/A
10:53 am 10:53 Sunny 98 36.7 44 6.7 16 16 ESE 12 19 29.88 1012 10 16 N/A
11:53 am 11:53 Sunny 99 37.2 41 5 14 14 S 12 19 29.86 1011 10 16 N/A
12:53 pm 12:53 Sunny 102 38.9 41 5 12 12 VRB 3 6 29.84 1011 10 16 N/A
1:53 pm 13:53 Sunny 104 40 40 4.4 11 11 SE 10 17 29.82 1010 10 16 N/A
2:53 pm 14:53 Sunny 105 40.6 40 4.4 11 11 SSE 6 9 29.80 1009 10 16 N/A
3:53 pm 15:53 Sunny 105 40.6 40 4.4 11 11 VRB 3 6 29.77 1008 10 16 N/A
4:53 pm 16:53 Sunny 106 41.1 41 5 11 11 S 12 19 29.75 1008 10 16 N/A
5:53 pm 17:53 Sunny 106 41.1 40 4.4 10 10 S 10 17 29.74 1007 10 16 N/A
6:53 pm 18:53 Sunny 102 38.9 49 9.4 17 17 SE 15 24 29.75 1007 10 16 N/A
7:53 pm 19:53 Clear 100 37.8 52 11.1 20 20 SE 13 20 29.76 1008 10 16 N/A
8:53 pm 20:53 Clear 98 36.7 54 12.2 23 23 SE 13 20 29.78 1008 10 16 N/A
9:53 pm 21:53 Clear 97 36.1 52 11.1 22 22 SSE 12 19 29.78 1009 10 16 N/A
10:53 pm 22:53 Clear 96 35.6 43 6.1 16 16 SW 12 19 29.79 1009 10 16 N/A
11:53 pm 23:53 Clear 94 34.4 44 6.7 18 18 S 8 13 29.80 1009 10 16 N/A

Powered by AerisWeather